Content
SEND FEEDBACK

Daily
Averages
Monthly
Summary
Mexico

CANCUN, QUINTANA ROO


Home > North America > Mexico > Quintana Roo
Elevation: 30 feet     Latitude: 21 09N     Longitude: 086 49W

WEATHER
 
SELECT A DAY
Number of Records: 163,677;   Date Range: 1/1/95 - 7/23/14
 
SHARE

PRINT THIS DATA

[ ← Previous Day ]
WEATHER ALMANAC - MARCH 16, 2013
[ Next Day → ]
[ °C ]   °F
Weather ElementAverageHighLow
Temperature72.5 °F80.6 °F (10:43 am)59 °F (1:48 am)
Dewpoint61.8 °F64.4 °F (1:40 pm)55.4 °F (1:48 am)
Humidity70.3 %94 % (4:47 am)51 % (10:43 am)
Barometer30.05 in30.11 in (8:41 am)29.98 in (3:44 pm)
Wind Speed8 mph16.1 mph (2:45 pm)
Wind Gust27.6 mph (10:43 am)
Weather ElementAverage
Visibility7 mi
Wind DirectionESE (95.7 °)

Weather ElementTotal
Precipitation---
Cooling Degree Days4.8 (Base 65)
Growing Degree Days19.8 (Base 50)
Averaged from 23 records on March 16, 2013
WEATHER CONDITIONS BREAKOUT
WIND DIRECTION BREAKOUT
WEATHER BY HOUR - MARCH 16, 2013
[ °C ]   °F
Local TimeTemperatureDewpointHumidityBarometerVisibilityWind DirectionWind SpeedGust SpeedPrecipitationEventsConditions
1:48 AM59.0 °F55.4 °F88 %30.07 in7.0 miCalmPartly Cloudy
2:40 AM59.0 °F55.4 °F88 %30.06 in7.0 miWNW (300°)2.3 mphScattered Clouds
3:40 AM59.0 °F55.4 °F88 %30.06 in7.0 miCalmPartly Cloudy
4:47 AM59.0 °F57.2 °F94 %30.06 in7.0 miNE (40°)2.3 mphScattered Clouds
5:41 AM60.8 °F57.2 °F88 %30.06 in7.0 miNE (50°)4.6 mphScattered Clouds
6:46 AM66.2 °F60.8 °F83 %30.09 in7.0 miENE (70°)3.5 mphScattered Clouds
7:42 AM75.2 °F60.8 °F61 %30.09 in7.0 miEast (80°)10.4 mphScattered Clouds
8:41 AM77.0 °F62.6 °F61 %30.11 in7.0 miEast (80°)9.2 mphMostly Cloudy
9:41 AM77.0 °F62.6 °F61 %30.10 in7.0 miESE (110°)8.1 mphScattered Clouds
10:43 AM80.6 °F60.8 °F51 %30.10 in7.0 miESE (120°)13.8 mph27.6 mphScattered Clouds
11:45 AM78.8 °F62.6 °F57 %30.08 in7.0 miEast (90°)12.7 mphScattered Clouds
12:42 PM78.8 °F62.6 °F57 %30.05 in7.0 miESE (120°)11.5 mphMostly Cloudy
1:40 PM78.8 °F64.4 °F61 %30.03 in7.0 miESE (110°)12.7 mphMostly Cloudy
2:45 PM77.0 °F64.4 °F65 %30.02 in7.0 miSE (130°)16.1 mphMostly Cloudy
3:44 PM78.8 °F64.4 °F61 %29.98 in7.0 miEast (100°)8.1 mphScattered Clouds
4:42 PM75.2 °F64.4 °F69 %30.01 in7.0 miENE (70°)8.1 mphMostly Cloudy
5:46 PM75.2 °F64.4 °F69 %30.02 in7.0 miEast (80°)6.9 mphScattered Clouds
6:43 PM75.2 °F64.4 °F69 %30.02 in7.0 miESE (120°)6.9 mphScattered Clouds
7:48 PM75.2 °F64.4 °F69 %30.03 in7.0 miESE (120°)6.9 mphScattered Clouds
8:40 PM75.2 °F64.4 °F69 %30.03 in7.0 miESE (120°)8.1 mphScattered Clouds
9:48 PM75.2 °F64.4 °F69 %30.04 in7.0 miESE (110°)8.1 mphScattered Clouds
10:47 PM75.2 °F64.4 °F69 %30.03 in7.0 miENE (60°)12.7 mphPartly Cloudy
11:46 PM75.2 °F64.4 °F69 %30.01 in7.0 miESE (120°)11.5 mphClear
Hourly data recorded from MMUN, located miles away from Cancun, Quintana Roo







STORIES FROM OUR PARTNERS